Regional Weather Roundup
Issued by NWS

Home | Current Version | Previous Version | Text Only | Print | Product List | Glossary Off
Versions: 1 2 3 4 5 6 7 8 9 10 11 12 13 14 15 16 17 18 19 20 21 22 23 24 25 26 27 28 29 30 31 32 33 34 35 36 37 38 39 40 41 42 43 44 45 46 47 48 49 50

000
ASUS43 KFSD 192110
RWRSD

WEATHER ROUNDUP FOR SOUTH DAKOTA
NATIONAL WEATHER SERVICE SIOUX FALLS SD
300 PM CST MON FEB 19 2018

NOTE: "FAIR" INDICATES FEW OR NO CLOUDS BELOW 12,000 FEET WITH NO
SIGNIFICANT WEATHER AND/OR OBSTRUCTIONS TO VISIBILITY.


SDZ001>005-009-010-012>017-192200-
NORTHWEST AND NORTH CENTRAL SOUTH DAKOTA

CITY           SKY/WX    TMP DP  RH WIND       PRES   REMARKS
BUFFALO          N/A      2  -5  72 NE14      29.90F WCI -16
FAITH            N/A      2  -1  88 N18       29.98F WCI -19
MOBRIDGE       LGT SNOW   8   1  73 N16       30.04F VSB 3/4 WCI -10
$$

SDZ012>016-024>037-041>051-057-063-072>074-192200-
SOUTHWEST AND SOUTH CENTRAL SOUTH DAKOTA

CITY           SKY/WX    TMP DP  RH WIND       PRES   REMARKS
RAPID CTY ARPT LGT SNOW   1  -5  75 N12       29.94R VSB 1   WCI -16
PIERRE         NOT AVBL
CUSTER         LGT SNOW   0  -7  72 E8        29.66R WCI -14
ELLSWORTH AFB  CLOUDY     1  -4  78 N12       29.94  BLWGSNOWWCI -15
PHILIP         LGT SNOW   5   0  79 N20       29.98F WCI -15
PINE RIDGE     LGT SNOW   5  -2  72 NE10      29.88R WCI -10
SPEARFISH      LGT SNOW  -2  -8  78 NE8       29.86S WCI -17
WINNER         LGT SNOW  10   4  76 N20       29.94F WCI  -9
$$

SDZ004>011-016>023-039-040-192200-
NORTHEAST SOUTH DAKOTA

CITY           SKY/WX    TMP DP  RH WIND       PRES   REMARKS
ABERDEEN       SNOW      11   4  73 NE22      30.07S VSB 1/2 WCI  -8
WATERTOWN      CLOUDY    10   5  80 N23G31    29.93R HAZE    WCI -10
BROOKINGS      LGT SNOW  12   8  84 N16G25    29.89S FOG     WCI  -5
SISSETON         N/A     12   4  70 N17       30.06R WCI  -5
$$

SDZ017-020-022-023-036>040-048>070-192200-
SOUTHEAST SOUTH DAKOTA

CITY           SKY/WX    TMP DP  RH WIND       PRES   REMARKS
SIOUX FALLS    LGT SNOW  16  12  84 N18       29.89R FOG     WCI   0
HURON          LGT SNOW  12   8  84 N23G29    29.98F VSB 1   WCI  -7
CHAMBERLAIN    LGT SNOW  12   8  85 NW17      29.95F WCI  -5
MITCHELL       LGT SNOW  15  10  80 N23       29.95F WCI  -3
YANKTON        LGT SNOW  17  14  88 N18       29.88F FOG     WCI   1
$$

ABBREVIATIONS USED IN REMARKS
   TC - TEMPERATURE IN CELSIUS
  WCI - WIND CHILL INDEX
   HX - HEAT INDEX
  VSB - VISIBILITY





USA.gov is the U.S. government's official web portal to all federal, state and local government web resources and services.